AirNav   Air Wisconsin Up To $57,000 Bonus
 
 281 users online  

0NM0 Columbus Municipal Airport
Columbus, New Mexico, USA

GOING TO COLUMBUS?


FAA INFORMATION EFFECTIVE 12 SEPTEMBER 2019

Location

FAA Identifier: 0NM0
Lat/Long: 31-49-25.3610N 107-37-37.0820W
31-49.422683N 107-37.618033W
31.8237114,-107.6269672
(estimated)
Elevation: 4024 ft. / 1227 m (estimated)
Variation: 11E (1985)
From city: 1 mile SE of COLUMBUS, NM
Time zone: UTC -6 (UTC -7 during Standard Time)
Zip code: 88029

Airport Operations

Airport use: Private use. Permission required prior to landing
Activation date: 08/1941
Control tower: no
ARTCC: ALBUQUERQUE CENTER
FSS: ALBUQUERQUE FLIGHT SERVICE STATION
Attendance: UNATNDD
Wind indicator: yes
Segmented circle: no

Nearby radio navigation aids

VOR radial/distance  VOR name  Freq  Var
CUSr264/2.7COLUMBUS VOR/DME111.2012E
DMNr170/27.1DEMING VORTAC108.6012E

Airport Services

Fuel available: 80
Airframe service: NONE
Powerplant service: NONE
Bottled oxygen: NONE
Bulk oxygen: NONE

Runway Information

Runway 8/26

Dimensions: 4210 x 250 ft. / 1283 x 76 m
CENTER 50FT GRADED.
Surface: gravel
RUNWAY 8  RUNWAY 26
Traffic pattern: leftleft
Markings: NSTDNSTD
Runway end identifier lights: nono
Obstructions: pline, 1150 ft. from runway, 34:1 slope to clearnone

Airport Ownership and Management from official FAA records

Ownership: Privately-owned
Owner: AMEN WARDY
1201 NORTH MESA
EL PASO, TX 79902
Manager: AMEN WARDY
1201 NORTH MESA
EL PASO, TX 79902
Phone 915-584-0505

Airport Operational Statistics

Aircraft based on the field: 4
Single engine airplanes: 4
    

Additional Remarks

FOR CD CTC ALBUQUERQUE ARTCC AT 505-856-4861.

Instrument Procedures

There are no published instrument procedures at 0NM0.

Some nearby airports with instrument procedures:

KDMN - Deming Municipal Airport (27 nm N)
KLRU - Las Cruces International Airport (45 nm NE)
KDNA - Dona Ana County International Jetport Airport (47 nm E)
KSVC - Grant County Airport (56 nm NW)
KBIF - Biggs Army Airfield (Fort Bliss) (64 nm E)
 
Loc | Ops | Rwys | IFR | FBO | Links
Com | Nav | Svcs | Stats | Notes

Chandler Aviation LLC
 
Area around 0NM0 (Columbus Municipal Airport)
 
Road maps at: MapQuest Bing Google
 
Aerial photo
No photo
 
Sectional chart

 
Airport distance calculator
Flying to Columbus Municipal Airport? Find the distance to fly.

From to 0NM0

Sunrise and sunset
Times for 24-Sep-2019
 Local
(UTC-6)
 Zulu
(UTC)
Morning civil twilight06:3712:37
Sunrise07:0113:01
Sunset19:0401:04
Evening civil twilight19:2801:28

Current date and time
Zulu (UTC)  24-Sep-2019 09:12:57
Local (UTC-6)  24-Sep-2019 03:12:57
 
METAR
KDMN 
27nm N 
240853Z AUTO 34009KT 10SM FEW065 18/13 A3011 RMK AO2 SLP119 T01780128 53007 TSNO
KLRU 
45nm NE 
240855Z AUTO 35009G15KT 10SM CLR 18/11 A3009 RMK AO2 T01780114
KDNA 
47nm E 
240735Z AUTO 36011G16KT 10SM BKN065 OVC075 21/12 A3009 RMK AO2
TAF
KDMN 
27nm N 
240524Z 2406/2506 23004KT P6SM SCT080 BKN140 TEMPO 2409/2412 P6SM -SHRA FEW050 SCT100 OVC150 FM241200 05010KT P6SM VCSH SCT100 BKN250 FM241800 13008KT P6SM FEW080 SCT120 BKN200 FM250300 25004KT P6SM SCT110 BKN160
NOTAMs
Click for the latest NOTAMs
NOTAMs are issued by the DoD/FAA and will open in a separate window not controlled by AirNav.

 

 
 

Would you like to see your business listed on this page?

 If your business provides an interesting product or service to pilots, flight crews, aircraft, or users of the Columbus Municipal Airport, you should consider listing it here.  To start the listing process, click on the button below
 
Add a business
 

Other Pages about Columbus Municipal Airport

Update a link
 
Copyright © AirNav, LLC. All rights reserved. Privacy Policy  Contact